Weather reports worldwide

Advertisment
Putbus, Germany (10093): temperature & dewpoint: 10.08.2018 18:00:00 - 16.08.2018 18:00:00 (CEST)Putbus, Germany (10093): temperature 5cm & temperature -5cm: 10.08.2018 18:00:00 - 16.08.2018 18:00:00 (CEST)Putbus, Germany (10093): temperature -20cm & temperature -100cm: 10.08.2018 18:00:00 - 16.08.2018 18:00:00 (CEST)Putbus, Germany (10093): wind speed & gusts: 10.08.2018 18:00:00 - 16.08.2018 18:00:00 (CEST)Putbus, Germany (10093): wind direction: 10.08.2018 18:00:00 - 16.08.2018 18:00:00 (CEST)Putbus, Germany (10093): reduced air pressure: 10.08.2018 18:00:00 - 16.08.2018 18:00:00 (CEST)Putbus, Germany (10093): visibility: 10.08.2018 18:00:00 - 16.08.2018 18:00:00 (CEST)Putbus, Germany (10093): sunshine duration: 10.08.2018 18:00:00 - 16.08.2018 18:00:00 (CEST)Putbus, Germany (10093): precipitation: 10.08.2018 18:00:00 - 16.08.2018 18:00:00 (CEST)
Date & Time tt [°C] td [°C] tt 5cm [°C] tt -5cm [°C] tt -20cm [°C] tt -100cm [°C] ff [km/h] ff [kn] fx [km/h] fx [kn] dd ppp [hPa] vv [km] sd [min] rr [mm]
16.08.2018 18:00:00 25,3 16,6 27,7 35,3 27,2 18,8 15 8 24 13 SE 1015,0 15 60 0,0
16.08.2018 17:00:00 25,8 15,7 29,3 36,2 26,6 18,8 12 7 24 13 SE 1015,2 13 60 0,0
16.08.2018 16:00:00 26,0 15,1 30,4 36,5 25,6 18,9 13 7 24 13 SE 1015,8 15 60 0,0
16.08.2018 15:00:00 26,0 13,7 30,7 35,6 24,6 18,9 10 6 24 13 SE 1016,4 11 60 0,0
16.08.2018 14:00:00 25,7 14,4 30,1 33,9 23,5 18,9 12 7 27 15 S 1016,9 11 60 0,0
16.08.2018 13:00:00 25,2 13,9 29,5 31,6 22,4 18,9 16 9 26 14 S 1017,4 14 60 0,0
16.08.2018 12:00:00 24,8 14,4 28,8 28,9 21,5 18,9 14 8 27 15 S 1017,6 15 60 0,0
16.08.2018 11:00:00 23,5 14,5 26,6 26,0 20,9 18,9 16 9 26 14 S 1018,0 15 60 0,0
16.08.2018 10:00:00 22,2 15,5 24,9 23,3 20,5 18,9 11 6 22 12 S 1018,0 13 60 0,0
16.08.2018 09:00:00 20,8 15,3 22,6 20,9 20,3 18,9 13 7 20 11 SSW 1018,2 13 60 0,0
16.08.2018 08:00:00 19,4 16,1 19,3 19,3 20,4 18,9 9 5 16 9 SSW 1018,3 13 1 0,0
16.08.2018 07:00:00 19,1 16,2 18,6 19,1 20,5 18,9 7 4 12 7 SSW 1018,2 11 0 0,0
16.08.2018 06:00:00 18,7 16,0 18,3 19,2 20,7 18,9 8 4 13 7 SSW 1018,3 10 0 0,0
16.08.2018 05:00:00 18,8 16,2 18,5 19,3 20,8 18,9 8 4 12 6 SSW 1018,5 10 0 0,0
16.08.2018 04:00:00 18,7 15,9 18,5 19,4 21,0 18,9 8 4 11 6 SSW 1018,4 9 0 0,0
16.08.2018 03:00:00 19,0 15,7 18,5 19,5 21,3 18,9 6 4 13 7 SW 1018,3 10 0 0,0
16.08.2018 02:00:00 18,7 15,7 18,3 19,6 21,5 18,9 10 6 17 9 WSW 1018,3 18 0 0,0
16.08.2018 01:00:00 19,2 15,3 18,8 19,6 21,8 18,9 10 6 18 10 WSW 1018,3 20 0 0,0
16.08.2018 00:00:00 17,3 15,1 16,2 19,4 22,3 18,9 9 5 11 6 SSW 1018,3 20 0 0,0
15.08.2018 23:00:00 16,5 14,4 14,8 20,1 22,8 18,9 7 4 8 5 SSW 1018,3 14 0 0,0
15.08.2018 22:00:00 18,6 14,7 16,2 21,6 23,3 18,9 6 3 18 10 WSW 1018,4 23 0 0,0
15.08.2018 21:00:00 19,9 14,7 19,4 23,0 23,6 18,9 11 6 15 8 W 1018,1 21 0 0,0
15.08.2018 20:00:00 20,7 14,4 20,2 24,8 23,9 18,9 9 5 19 10 W 1017,5 25 10 0,0
15.08.2018 19:00:00 21,5 14,7 22,1 26,9 23,8 18,9 12 7 23 12 W 1017,4 28 42 0,0
15.08.2018 18:00:00 21,9 13,8 23,8 27,7 23,6 18,9 13 7 26 14 WNW 1017,3 28 2 0,0
15.08.2018 17:00:00 21,9 15,0 23,6 29,4 23,0 19,0 20 11 35 19 W 1017,4 23 53 0,0
15.08.2018 16:00:00 21,9 14,6 25,0 29,1 22,4 19,0 24 13 33 18 W 1017,1 14 50 0,0
15.08.2018 15:00:00 19,7 15,6 21,8 25,8 22,1 19,0 16 9 26 14 W 1017,3 22 2 0,0
15.08.2018 14:00:00 19,1 15,3 21,4 26,0 21,6 19,0 10 5 33 18 W 1017,3 25 5 0,0
15.08.2018 13:00:00 21,8 12,6 26,7 27,7 20,8 19,0 21 12 35 19 WNW 1016,6 11 58 0,0
15.08.2018 12:00:00 21,3 13,2 24,8 24,9 20,1 19,0 22 12 33 18 WNW 1016,3 12 54 0,0
15.08.2018 11:00:00 20,6 14,8 24,8 22,5 19,7 19,0 24 13 37 20 W 1016,0 17 49 0,0
15.08.2018 10:00:00 19,0 14,8 22,1 20,5 19,4 19,0 23 13 39 21 W 1015,4 27 35 0,0
15.08.2018 09:00:00 18,6 15,1 20,5 19,1 19,3 19,0 22 12 36 20 WNW 1014,6 20 16 0,0
15.08.2018 08:00:00 17,9 15,6 17,4 18,3 19,3 19,0 23 12 35 19 WNW 1014,1 22 0 0,0
15.08.2018 07:00:00 17,8 16,3 16,9 17,9 19,4 19,0 16 9 29 15 WNW 1013,2 16 0 0,1
15.08.2018 06:00:00 17,4 16,8 17,0 17,8 19,5 19,0 12 7 23 12 W 1012,6 6 0 0,3
15.08.2018 05:00:00 17,8 16,5 17,5 17,8 19,7 19,0 9 5 19 10 WSW 1012,4 11 0 0,0
15.08.2018 04:00:00 18,0 16,2 17,2 17,5 19,9 19,0 12 7 24 13 W 1012,2 16 0 0,0
15.08.2018 03:00:00 17,9 16,2 16,7 17,9 20,0 19,0 15 8 26 14 W 1011,9 16 0 0,0
15.08.2018 02:00:00 18,4 16,6 17,4 18,2 20,2 19,0 15 8 29 16 W 1011,8 15 0 0,0
15.08.2018 01:00:00 18,4 17,0 17,4 18,5 20,4 19,0 16 9 28 15 WNW 1011,3 12 0 0,0
15.08.2018 00:00:00 18,4 17,0 17,6 18,5 20,7 19,0 17 9 25 14 WNW 1010,8 14 0 0,6
14.08.2018 23:00:00 18,2 16,2 17,6 18,5 21,0 19,0 16 9 29 15 W 1010,3 14 0 0,0
14.08.2018 22:00:00 18,4 16,2 17,7 18,8 21,3 19,0 19 10 29 16 W 1009,8 14 0 0,0
14.08.2018 21:00:00 19,1 15,8 18,4 19,9 21,6 19,0 18 10 27 15 W 1009,5 16 0 0,0
14.08.2018 20:00:00 19,5 16,3 19,1 20,9 21,9 19,0 14 7 27 14 WSW 1008,9 17 0 0,0
14.08.2018 19:00:00 20,4 16,0 20,3 22,0 21,9 19,0 14 8 28 15 WSW 1008,7 20 7 0,0
14.08.2018 18:00:00 21,0 15,5 21,2 22,8 21,9 19,0 16 9 34 18 WSW 1008,5 24 21 0,0
14.08.2018 17:00:00 21,7 15,3 22,7 22,9 21,8 19,0 24 13 37 20 WSW 1008,2 16 26 0,0
14.08.2018 16:00:00 20,1 15,3 20,5 21,8 21,9 19,0 16 9 36 20 SW 1008,1 15 14 0,0
14.08.2018 15:00:00 18,7 16,3 18,6 21,4 21,9 19,0 19 10 33 18 SW 1008,0 13 0 1,3
14.08.2018 14:00:00 18,8 15,6 17,9 22,6 21,9 19,0 16 9 37 20 SW 1007,9 10 0 0,4
14.08.2018 13:00:00 20,2 14,8 21,5 24,2 21,7 19,0 16 9 37 20 SW 1007,3 23 0 0,0
14.08.2018 12:00:00 19,8 15,0 21,0 24,3 21,3 19,0 19 11 36 19 SW 1007,2 17 7 0,0
14.08.2018 11:00:00 20,6 15,1 23,3 24,2 20,8 19,0 16 9 39 21 SW 1007,0 15 34 0,0
14.08.2018 10:00:00 19,0 14,6 20,5 22,4 20,4 19,0 16 9 33 18 SW 1006,7 11 44 0,0
14.08.2018 09:00:00 18,4 14,5 19,9 19,8 20,4 19,0 22 12 37 20 WSW 1006,7 8 43 0,0
14.08.2018 08:00:00 17,3 14,7 17,7 17,9 20,6 19,0 23 13 35 19 WSW 1006,3 7 31 0,0
14.08.2018 07:00:00 16,6 14,8 16,0 17,9 21,0 19,0 18 10 25 14 WSW 1006,1 11 0 0,0
14.08.2018 06:00:00 17,2 14,7 16,4 18,3 21,3 19,0 16 9 25 13 WSW 1005,6 18 0 0,0
14.08.2018 05:00:00 17,6 14,7 16,7 18,8 21,6 19,0 16 8 23 12 WSW 1005,6 17 0 0,0
14.08.2018 04:00:00 18,7 14,5 17,7 19,3 22,0 19,0 11 6 20 11 SW 1005,5 23 0 0,0
14.08.2018 03:00:00 18,3 14,5 16,5 19,6 22,4 19,0 9 5 13 7 SSW 1005,5 22 0 0,0
14.08.2018 02:00:00 19,2 14,9 18,5 20,4 22,7 19,0 10 5 14 8 SSW 1005,6 22 0 0,0
14.08.2018 01:00:00 20,2 17,5 19,4 21,2 23,1 19,1 8 5 12 7 S 1005,8 27 0 0,0
14.08.2018 00:00:00 20,4 18,8 19,2 21,8 23,5 19,1 6 3 17 9 SE 1005,9 21 0 0,0
13.08.2018 23:00:00 20,8 18,0 20,1 22,6 23,9 19,1 6 3 11 6 ESE 1006,0 27 0 0,0
13.08.2018 22:00:00 20,6 17,4 20,1 23,2 24,3 19,1 9 5 15 8 ENE 1006,1 30 0 0,0
13.08.2018 21:00:00 20,8 17,2 20,5 24,1 24,8 19,1 8 4 16 9 ENE 1006,4 27 0 0,0
13.08.2018 20:00:00 21,0 16,3 20,8 25,3 25,3 19,1 5 3 23 13 SE 1006,6 20 0 0,0
13.08.2018 19:00:00 21,6 15,2 20,8 27,5 25,6 19,1 11 6 27 14 E 1006,5 23 0 0,0
13.08.2018 18:00:00 22,7 14,8 23,5 30,6 25,5 19,1 16 9 32 17 E 1006,6 36 5 0,0
13.08.2018 17:00:00 24,1 13,9 26,6 34,5 24,7 19,1 16 9 31 17 E 1006,9 24 56 0,0
13.08.2018 16:00:00 25,5 14,0 29,2 34,2 23,8 19,2 16 9 29 16 E 1007,1 16 54 0,0
13.08.2018 15:00:00 25,1 12,2 29,2 33,0 22,7 19,2 15 8 28 15 E 1007,7 18 41 0,0
13.08.2018 14:00:00 24,1 13,0 28,0 30,8 21,7 19,2 14 7 25 13 ESE 1008,3 17 37 0,0
13.08.2018 13:00:00 22,9 12,3 25,7 28,8 20,8 19,2 15 8 28 15 ESE 1008,5 19 54 0,0
13.08.2018 12:00:00 22,7 13,9 26,1 24,9 20,2 19,2 13 7 23 13 ESE 1009,1 26 6 0,0
13.08.2018 11:00:00 21,2 13,6 22,6 22,6 19,8 19,2 12 7 29 16 SE 1009,4 33 3 0,0
13.08.2018 10:00:00 20,8 14,5 22,2 21,0 19,5 19,2 13 7 27 15 SE 1009,4 26 5 0,0
13.08.2018 09:00:00 20,2 15,0 20,8 19,7 19,4 19,2 12 6 26 14 SE 1009,4 25 0 0,0
13.08.2018 08:00:00 19,5 15,7 19,2 18,4 19,4 19,2 10 5 22 12 ESE 1009,4 29 0 0,0
13.08.2018 07:00:00 18,5 15,6 17,3 17,7 19,6 19,2 10 5 21 11 SE 1009,3 25 0 0,0
13.08.2018 06:00:00 17,5 15,8 16,3 17,6 19,7 19,3 7 4 13 7 ESE 1010,0 17 0 0,0
13.08.2018 05:00:00 16,7 15,5 16,0 17,9 19,9 19,3 5 3 9 5 ENE 1010,5 11 0 0,1
13.08.2018 04:00:00 17,4 15,5 16,5 18,1 20,1 19,3 4 2 12 6 E 1010,8 12 0 0,0
13.08.2018 03:00:00 16,9 15,0 16,0 18,1 20,4 19,3 7 4 11 6 SE 1011,0 17 0 0,0
13.08.2018 02:00:00 15,8 14,5 15,4 18,4 20,6 19,3 4 2 10 5 NE 1011,6 9 0 0,1
13.08.2018 01:00:00 16,3 14,4 15,5 18,6 21,0 19,3 5 3 9 5 ESE 1011,9 11 0 0,1
13.08.2018 00:00:00 15,8 13,8 15,1 19,0 21,3 19,4 5 3 11 6 E 1012,2 16 0 0,1
12.08.2018 23:00:00 16,0 13,4 16,0 19,5 21,7 19,4 4 2 15 8 NE 1012,5 18 0 0,0
12.08.2018 22:00:00 16,5 12,7 16,6 20,4 22,1 19,4 6 4 10 6 ESE 1012,9 31 0 0,0
12.08.2018 21:00:00 17,0 11,8 17,1 21,2 22,4 19,4 6 3 15 8 NE 1013,2 31 0 0,0
12.08.2018 20:00:00 18,0 11,2 18,1 22,4 22,7 19,5 5 3 14 8 N 1013,4 30 0 0,0
12.08.2018 19:00:00 18,6 11,2 19,0 23,9 22,9 19,5 9 5 18 10 NNW 1013,6 20 0 0,0
12.08.2018 18:00:00 19,7 9,7 20,8 25,8 22,9 19,5 10 6 18 10 NW 1014,2 45 0 0,0
12.08.2018 17:00:00 20,4 8,8 22,4 27,9 22,5 19,5 13 7 25 14 WNW 1014,5 48 3 0,0
12.08.2018 16:00:00 21,0 7,3 22,9 27,9 22,0 19,6 18 10 39 21 WSW 1014,8 45 9 0,0
12.08.2018 15:00:00 21,1 7,8 23,7 29,2 21,1 19,6 18 10 35 19 WSW 1015,3 18 51 0,0
12.08.2018 14:00:00 20,7 8,6 23,4 28,4 20,0 19,6 19 10 34 19 WSW 1015,9 23 57 0,0
12.08.2018 13:00:00 20,3 9,3 24,2 26,1 19,0 19,6 21 11 38 21 WSW 1016,3 18 59 0,0
12.08.2018 12:00:00 19,1 10,1 21,7 22,8 18,2 19,6 26 14 41 22 WSW 1016,9 12 47 0,0
12.08.2018 11:00:00 18,3 12,7 20,9 20,5 17,6 19,7 19 11 36 20 WSW 1016,8 16 56 0,0
12.08.2018 10:00:00 16,9 12,9 19,2 18,3 17,2 19,7 19 10 32 17 SW 1017,0 39 59 0,0
12.08.2018 09:00:00 15,2 13,0 16,4 16,2 17,0 19,7 13 7 29 15 WSW 1017,1 23 28 0,0
12.08.2018 08:00:00 13,8 12,3 13,6 14,9 17,0 19,7 11 6 20 11 WSW 1017,2 23 12 0,0
12.08.2018 07:00:00 13,2 12,2 12,7 14,2 17,1 19,7 13 7 23 13 WSW 1017,2 22 27 0,0
12.08.2018 06:00:00 12,8 11,9 12,3 13,8 17,2 19,8 14 7 23 12 WSW 1016,9 16 0 0,3
12.08.2018 05:00:00 12,7 11,6 12,2 13,4 17,4 19,8 14 7 24 13 WSW 1016,9 6 0 0,1
12.08.2018 04:00:00 12,9 11,6 12,2 13,2 17,7 19,8 14 7 29 16 WSW 1017,0 31 0 0,0
12.08.2018 03:00:00 13,0 11,2 12,2 13,5 18,0 19,8 17 9 32 17 WSW 1017,0 43 0 0,0
12.08.2018 02:00:00 13,2 9,9 12,4 13,9 18,3 19,8 22 12 37 20 WSW 1016,9 58 0 0,0
12.08.2018 01:00:00 13,4 11,0 12,3 14,1 18,7 19,8 16 9 39 21 WSW 1016,8 45 0 0,0
12.08.2018 00:00:00 14,0 10,7 13,1 14,4 19,1 19,9 22 12 36 20 WSW 1016,8 41 0 0,0
11.08.2018 23:00:00 13,5 11,3 12,8 14,9 19,6 19,9 19 10 33 18 WSW 1017,0 40 0 0,0
11.08.2018 22:00:00 14,0 11,3 13,2 15,6 20,0 19,9 16 9 41 22 WSW 1016,8 41 0 0,0
11.08.2018 21:00:00 15,3 10,9 14,7 16,3 20,5 19,9 29 15 59 32 WSW 1015,8 47 18 0,0
11.08.2018 20:00:00 15,8 11,4 13,9 17,5 21,0 19,9 37 20 61 33 WSW 1015,4 25 7 0,1
11.08.2018 19:00:00 17,6 9,3 17,4 19,1 21,3 20,0 48 26 61 33 WSW 1014,8 42 9 0,0
11.08.2018 18:00:00 16,6 11,9 17,0 20,0 21,6 20,0 20 11 44 24 SW 1015,2 29 16 0,0
11.08.2018 17:00:00 15,7 11,2 15,4 20,5 21,8 20,0 22 12 51 28 SW 1015,9 28 6 0,4
11.08.2018 16:00:00 14,7 10,9 13,4 22,8 21,6 20,0 33 18 64 34 WSW 1016,2 16 15 0,4
11.08.2018 15:00:00 19,4 9,0 22,4 26,1 21,0 20,0 21 11 43 23 SSW 1015,9 31 48 0,0
11.08.2018 14:00:00 17,6 9,6 19,7 23,5 20,7 20,0 24 13 41 22 SW 1016,8 25 27 0,0
11.08.2018 13:00:00 16,2 10,7 17,8 21,6 20,4 20,1 19 11 44 24 SW 1017,1 46 2 0,1
11.08.2018 12:00:00 19,2 9,8 21,3 23,3 19,8 20,1 20 11 35 19 WSW 1017,0 34 20 0,0
11.08.2018 11:00:00 19,6 10,4 22,4 21,6 19,3 20,1 24 13 36 19 W 1017,0 21 23 0,0
11.08.2018 10:00:00 18,6 10,1 19,4 19,6 19,0 20,1 16 9 29 16 SW 1016,8 39 41 0,0
11.08.2018 09:00:00 18,7 10,9 19,6 18,0 18,9 20,1 14 8 31 17 SSW 1016,7 44 21 0,0
11.08.2018 08:00:00 19,0 11,4 19,0 16,8 18,9 20,1 15 8 - - S 1017,2 44 6 0,0
11.08.2018 07:00:00 19,0 10,9 18,2 16,0 19,0 20,1 15 8 32 18 S 1017,5 45 0 0,0
11.08.2018 06:00:00 18,9 10,8 17,6 15,6 19,2 20,2 15 8 30 16 S 1018,1 48 0 0,0
11.08.2018 05:00:00 17,9 11,2 16,5 15,2 19,4 20,2 9 5 18 10 S 1018,7 49 0 0,0
11.08.2018 04:00:00 16,7 11,4 13,8 14,9 19,8 20,2 9 5 18 10 S 1019,2 52 0 0,0
11.08.2018 03:00:00 16,4 11,1 12,4 15,0 20,3 20,2 10 5 16 8 S 1019,8 46 0 0,0
11.08.2018 02:00:00 13,0 11,9 10,3 15,4 20,8 20,2 3 2 5 3 ESE 1020,4 30 0 0,0
11.08.2018 01:00:00 13,1 11,9 11,4 16,1 21,3 20,2 2 1 4 2 WNW 1021,0 29 0 0,0
11.08.2018 00:00:00 13,6 11,9 11,2 16,9 21,9 20,2 3 2 6 3 N 1021,2 34 0 0,0
10.08.2018 23:00:00 14,0 12,2 12,0 17,9 22,5 20,2 3 1 10 6 WSW 1021,4 34 0 0,0
10.08.2018 22:00:00 14,7 12,4 13,2 19,3 23,1 20,2 0 0 3 2 N 1021,1 37 0 0,0
10.08.2018 21:00:00 16,8 12,0 14,5 21,3 23,6 20,3 3 2 11 6 WNW 1020,7 49 29 0,0
10.08.2018 20:00:00 19,7 10,5 18,3 23,8 23,8 20,3 11 6 21 12 W 1020,5 50 60 0,0
10.08.2018 19:00:00 21,0 9,5 22,3 26,3 23,6 20,3 13 7 34 19 W 1020,6 41 60 0,0
10.08.2018 18:00:00 21,8 10,0 23,8 27,1 23,2 20,3 23 12 43 23 W 1020,5 23 58 0,0

tt = temperature
td = dewpoint
tt 5cm = temperature 5cm
tt -5cm = temperature -5cm
tt -20cm = temperature -20cm
tt -100cm = temperature -100cm
ff = wind speed
fx = gusts
dd = wind direction
ppp = reduced air pressure
vv = visibility
sd = sunshine duration
rr = precipitation

Next stations